Wind_Speed
6 6 5 4 4 4 4 2 3 2 3 2 2 1 1 2 3 3 2 2 2 2 2 2 2 2 2 2 2 3 3 3 3 4 4 5 5 5 6 6 6 7 7
6 6 6 5 5 4 4 3 3 2 2 2 2 1 1 1 3 3 3 3 2 2 2 2 1 1 2 2 2 3 3 4 4 4 5 5 5 5 6 6 7 8 8
6 6 6 5 6 6 5 4 3 3 2 2 1 1 1 1 2 3 3 3 3 2 2 2 1 1 2 2 3 3 4 5 5 6 6 6 6 6 6 6 7 8 8
6 6 6 6 7 6 5 4 3 2 2 2 1 1 1 1 2 3 3 2 2 2 2 2 1 1 2 3 4 5 5 6 7 7 7 7 7 7 7 7 8 8 8
6 6 6 7 7 6 6 5 3 2 1 2 2 1 2 3 3 2 2 2 2 2 2 2 2 2 2 3 4 5 5 6 7 6 6 7 7 7 7 7 7 8 9
7 6 6 6 6 6 6 5 4 3 2 2 2 2 2 3 2 2 2 1 1 2 2 2 2 2 3 4 4 5 6 6 6 6 6 6 6 7 6 7 7 8 8
8 7 7 7 6 6 6 5 4 3 2 2 2 2 2 2 2 1 1 1 1 1 2 2 2 3 3 4 4 5 6 6 6 6 6 6 6 7 7 7 7 7 7
8 8 7 7 7 7 7 7 5 3 2 3 3 2 2 2 2 1 1 2 2 1 2 2 2 3 3 3 4 5 6 6 6 6 5 5 6 6 6 6 7 7 7
8 8 8 8 7 7 8 7 6 3 2 3 3 3 3 2 1 1 0 1 2 1 1 1 2 2 3 3 4 5 5 5 6 6 6 5 5 6 6 7 7 7 7
9 8 8 9 8 8 8 7 6 4 3 3 3 3 3 2 2 1 1 1 1 1 0 1 1 2 3 4 4 4 4 4 5 5 5 5 5 5 6 6 7 8 8
9 9 8 8 8 8 8 7 7 6 4 4 4 3 3 2 2 2 1 2 1 1 0 1 2 3 3 4 4 4 3 4 4 4 4 5 5 5 6 6 7 7 7
10 10 9 8 8 8 8 8 9 7 5 4 4 3 3 2 2 1 1 1 1 1 1 1 2 3 3 3 3 3 3 3 4 4 4 5 5 5 6 6 7 7 8
10 9 9 9 8 9 8 8 8 7 6 5 4 4 3 3 2 1 1 2 1 1 1 1 2 3 3 3 3 3 4 4 6 5 5 5 5 6 6 7 7 8 8
10 10 9 9 9 9 8 8 7 7 6 5 4 4 4 3 3 2 2 2 2 2 2 2 2 3 3 3 3 4 4 5 6 5 5 5 5 6 7 8 8 8 9
10 10 9 9 9 9 8 8 8 7 7 5 4 3 3 3 2 2 2 2 1 1 1 1 2 2 3 3 4 4 5 6 6 5 5 5 6 7 7 8 8 8 9
10 9 8 8 8 8 8 8 7 7 6 5 3 2 2 2 2 1 1 1 1 1 1 1 2 2 3 4 4 5 5 5 5 5 5 6 6 7 7 8 8 9 9
10 9 8 7 7 7 7 7 7 6 6 5 4 3 2 1 1 1 1 0 1 1 1 2 3 4 4 4 5 5 5 6 6 5 6 6 7 7 8 8 8 9 9
10 10 9 8 8 7 7 7 7 6 6 5 4 3 2 1 1 1 1 1 2 2 2 2 3 4 4 4 5 5 6 6 6 6 6 7 7 8 8 9 9 9 10
10 10 9 9 8 7 7 7 7 6 6 5 4 3 2 2 2 1 2 2 2 3 3 3 4 4 4 5 5 5 6 6 7 7 7 8 9 9 9 9 9 9 10
10 10 9 9 8 7 7 7 7 6 5 5 5 4 3 3 3 3 3 3 3 3 4 5 5 5 5 6 7 7 7 7 8 8 8 9 9 10 9 9 9 9 9
9 9 9 9 9 8 7 7 7 6 6 5 4 5 5 4 4 4 4 4 4 4 5 6 6 6 6 7 8 8 8 8 8 8 9 9 9 10 10 9 9 9 9
8 8 9 9 9 8 8 7 6 6 6 6 5 5 6 5 5 4 4 4 5 5 5 6 6 7 7 8 8 9 9 9 9 9 9 9 10 10 10 11 10 10 10
7 7 7 8 8 8 9 8 7 8 8 7 6 6 6 6 6 6 6 6 6 6 6 7 7 7 8 9 9 9 10 10 10 10 9 10 10 11 11 11 11 11 11
6 6 6 7 7 8 9 9 8 8 8 8 8 8 8 7 7 7 7 8 7 7 7 8 8 8 8 9 9 10 10 11 10 10 10 11 12 12 12 11 11 11 12
7 7 7 7 7 8 9 8 8 9 9 10 10 10 10 9 9 9 9 9 9 9 9 9 8 8 9 9 10 10 11 11 11 11 11 11 12 12 12 12 12 12 12
9 8 8 8 8 8 9 9 9 9 10 10 11 11 11 10 10 10 10 10 10 10 9 9 9 9 9 10 10 11 11 11 11 12 11 11 12 12 12 13 13 13 12
Wind_Direction
56 49 40 35 37 40 45 49 63 56 62 70 80 98 140 172 193 200 217 220 203 200 203 215 227 211 226 259 256 257 268 272 278 285 287 287 275 270 269 271 273 277 278
55 48 39 35 27 32 43 50 56 66 59 70 79 93 122 160 193 213 212 196 201 198 202 205 199 212 217 241 257 266 278 282 283 288 290 283 274 274 274 278 275 274 275
50 46 39 33 31 31 41 45 49 57 59 55 66 93 102 164 206 196 182 183 202 205 204 207 201 228 232 248 267 276 283 284 279 283 282 278 282 279 274 281 280 278 276
50 49 43 34 32 34 42 40 30 56 62 52 46 78 92 110 147 158 168 182 202 217 214 216 242 276 263 268 279 277 278 279 279 283 282 285 285 286 281 283 283 283 283
44 42 40 36 33 36 36 34 36 39 58 57 60 99 103 104 132 141 154 178 204 224 222 228 252 279 283 280 287 288 286 287 284 286 285 286 284 287 286 285 287 284 283
43 41 41 40 39 34 30 31 37 41 53 69 86 98 118 126 126 127 148 169 204 225 223 228 246 268 280 282 292 297 298 294 288 291 290 285 286 287 284 284 290 290 286
45 43 41 42 45 38 33 39 45 47 61 82 94 104 113 120 130 149 166 181 195 210 236 236 256 277 284 288 294 300 299 292 296 298 295 287 284 290 291 289 291 292 294
41 39 40 45 47 40 37 41 47 47 78 84 102 113 115 117 105 148 191 184 180 200 226 254 284 285 287 299 304 301 299 293 302 306 297 287 289 295 293 294 292 292 299
42 40 38 43 44 39 36 37 37 46 88 91 100 101 104 115 134 140 112 174 200 215 239 283 289 291 301 304 304 302 301 298 297 303 302 299 296 295 293 294 292 290 294
42 42 38 39 40 39 38 39 34 50 84 87 90 88 97 99 108 131 146 113 153 187 281 299 319 298 299 302 299 307 308 306 305 307 307 304 304 303 300 296 297 294 298
41 43 41 39 37 37 38 41 49 61 73 80 81 80 81 94 96 98 105 113 96 71 61 324 321 322 316 311 307 316 329 324 314 319 315 313 310 305 304 302 303 305 305
39 42 43 40 38 39 42 45 48 59 72 82 74 76 89 101 111 97 98 117 106 33 359 347 346 347 342 340 345 336 331 328 320 317 318 314 308 306 303 304 305 303 304
36 39 42 41 41 43 47 50 47 52 61 69 69 75 91 109 113 116 69 70 56 57 45 6 345 356 347 339 338 334 328 322 323 321 317 316 314 311 308 307 306 302 304
38 41 44 43 42 45 48 51 50 51 53 58 68 75 79 90 103 104 69 65 58 63 58 30 17 7 346 330 325 329 328 325 324 326 320 320 316 312 311 309 305 300 300
38 39 41 42 42 43 45 49 50 50 49 55 70 76 80 91 94 72 53 55 56 41 45 29 25 14 348 339 330 325 327 329 331 334 328 320 316 318 319 314 308 306 305
36 37 38 42 43 41 42 41 42 44 44 44 49 53 60 78 80 61 42 51 38 359 356 339 340 338 335 337 333 330 331 327 324 325 330 326 321 324 325 320 315 310 312
33 35 36 37 33 30 31 31 30 37 38 42 45 45 37 27 39 29 19 353 321 330 335 324 331 328 329 327 327 326 327 324 319 314 316 319 319 320 321 318 314 314 313
33 32 30 27 24 21 19 19 21 27 26 28 38 38 31 17 346 268 267 287 302 307 309 304 313 318 321 323 324 323 322 325 322 317 314 313 310 312 314 312 313 313 311
28 27 25 24 22 17 14 11 14 15 15 14 13 10 2 352 339 304 287 282 292 304 305 304 307 313 313 315 319 320 318 315 317 313 306 309 311 312 313 311 309 307 307
21 22 21 18 14 16 15 10 9 7 5 4 1 360 350 343 337 317 313 313 306 303 304 306 308 307 309 311 315 313 311 307 308 305 308 310 311 312 313 307 306 307 306
13 14 17 15 13 13 13 9 6 1 355 351 351 354 348 331 320 310 314 317 311 302 303 304 302 299 302 308 314 315 314 308 306 303 305 308 312 312 308 308 306 306 306
5 7 11 10 11 11 8 6 4 357 352 349 345 341 340 326 315 305 304 306 304 298 302 309 306 300 301 306 310 311 309 305 307 308 307 308 310 309 304 304 303 302 307
354 358 2 0 360 3 2 358 354 353 348 341 332 329 324 322 316 303 303 304 301 298 300 301 302 303 304 304 306 306 302 304 309 307 307 306 305 305 305 305 305 303 304
340 338 346 351 349 349 350 348 345 342 340 335 324 320 313 308 307 303 301 298 303 301 297 294 294 296 301 302 303 303 303 303 306 305 303 302 301 302 303 306 305 303 301
322 324 324 328 337 340 338 335 332 332 330 328 322 317 311 305 302 299 300 298 299 300 295 289 292 294 294 297 299 301 302 303 306 303 300 300 300 301 301 302 301 300 299
307 310 315 316 323 327 328 328 323 321 320 320 319 314 312 305 297 294 295 294 295 295 294 291 289 296 299 299 301 303 305 305 305 302 300 298 298 299 299 299 297 296 296
Height
5877 5877 5876 5876 5875 5875 5874 5874 5873 5873 5873 5873 5873 5873 5873 5874 5875 5876 5877 5878 5879 5880 5881 5881 5882 5882 5884 5884 5885 5885 5885 5885 5885 5886 5886 5886 5886 5886 5886 5886 5886 5886 5886
5878 5877 5877 5876 5876 5875 5874 5874 5873 5873 5873 5873 5873 5873 5874 5874 5875 5875 5876 5877 5878 5880 5880 5881 5882 5882 5883 5884 5884 5885 5885 5885 5885 5885 5885 5885 5885 5885 5885 5885 5885 5885 5885
5878 5878 5877 5877 5876 5875 5874 5874 5874 5874 5873 5873 5874 5874 5874 5873 5874 5875 5876 5877 5878 5879 5880 5881 5882 5882 5883 5884 5884 5884 5884 5884 5884 5884 5884 5884 5884 5884 5884 5884 5884 5884 5884
5879 5878 5878 5877 5876 5876 5875 5874 5874 5874 5873 5874 5874 5874 5874 5874 5873 5874 5876 5877 5878 5879 5880 5881 5882 5882 5883 5883 5883 5884 5883 5884 5884 5883 5883 5883 5883 5883 5883 5883 5883 5882 5882
5880 5879 5878 5877 5876 5876 5875 5874 5874 5874 5874 5874 5874 5874 5874 5874 5875 5875 5877 5877 5878 5879 5880 5881 5881 5882 5882 5883 5883 5883 5883 5883 5883 5882 5882 5882 5882 5882 5882 5882 5881 5881 5881
5880 5879 5878 5878 5877 5876 5875 5874 5873 5873 5874 5874 5874 5874 5875 5875 5876 5877 5877 5878 5879 5879 5880 5881 5881 5881 5882 5882 5882 5882 5882 5882 5882 5881 5881 5881 5881 5881 5881 5880 5880 5880 5879
5882 5880 5879 5878 5877 5876 5875 5874 5874 5873 5873 5873 5874 5874 5875 5875 5876 5877 5877 5878 5879 5879 5880 5880 5881 5881 5881 5881 5881 5881 5881 5881 5881 5880 5880 5880 5880 5880 5879 5879 5879 5878 5877
5882 5881 5880 5879 5877 5876 5875 5874 5873 5873 5873 5873 5874 5874 5875 5875 5876 5876 5877 5878 5879 5879 5880 5880 5880 5881 5881 5881 5881 5881 5880 5880 5880 5879 5879 5879 5878 5878 5878 5878 5877 5877 5876
5883 5882 5881 5879 5878 5877 5875 5874 5873 5872 5872 5873 5874 5874 5875 5876 5876 5876 5877 5878 5878 5879 5879 5880 5880 5880 5880 5880 5880 5880 5880 5879 5879 5878 5878 5878 5877 5877 5877 5876 5876 5875 5874
5884 5883 5882 5880 5879 5877 5876 5875 5873 5871 5871 5872 5874 5875 5875 5876 5876 5877 5877 5878 5878 5878 5879 5879 5880 5880 5880 5880 5879 5879 5879 5878 5878 5878 5877 5877 5876 5876 5875 5875 5874 5874 5873
5884 5883 5882 5881 5880 5878 5877 5876 5874 5873 5872 5873 5874 5875 5875 5876 5876 5877 5877 5878 5878 5879 5879 5879 5879 5879 5879 5879 5879 5878 5878 5878 5878 5877 5877 5876 5875 5875 5874 5874 5873 5873 5872
5885 5884 5883 5882 5881 5879 5878 5877 5875 5874 5874 5874 5875 5876 5876 5876 5877 5877 5877 5878 5878 5878 5879 5879 5879 5879 5879 5879 5879 5878 5878 5878 5877 5877 5876 5875 5875 5874 5873 5873 5872 5871 5870
5886 5885 5884 5883 5882 5880 5880 5878 5877 5877 5876 5876 5876 5877 5877 5877 5877 5878 5878 5878 5878 5878 5879 5879 5879 5879 5879 5879 5879 5878 5878 5877 5877 5876 5875 5874 5874 5873 5873 5872 5871 5870 5869
5887 5886 5884 5884 5883 5881 5881 5880 5879 5878 5878 5877 5877 5877 5877 5877 5878 5878 5879 5879 5879 5879 5879 5879 5879 5879 5879 5878 5878 5878 5878 5877 5876 5875 5874 5874 5873 5872 5871 5870 5870 5868 5867
5888 5887 5885 5884 5884 5883 5882 5881 5880 5880 5879 5879 5878 5878 5878 5879 5879 5879 5879 5879 5879 5879 5880 5880 5880 5879 5879 5878 5878 5877 5877 5876 5875 5874 5873 5873 5872 5871 5870 5869 5868 5867 5866
5889 5888 5887 5886 5885 5884 5883 5882 5881 5881 5880 5880 5879 5879 5879 5879 5879 5879 5879 5879 5879 5879 5879 5879 5879 5879 5878 5877 5877 5877 5876 5875 5874 5874 5873 5872 5871 5870 5869 5868 5867 5866 5865
5890 5889 5887 5887 5886 5885 5884 5883 5882 5881 5881 5880 5880 5880 5879 5879 5880 5880 5880 5879 5879 5879 5879 5879 5878 5878 5877 5877 5876 5876 5875 5874 5873 5872 5872 5871 5870 5869 5868 5867 5866 5864 5863
5891 5889 5888 5888 5887 5886 5885 5884 5883 5882 5881 5881 5880 5880 5880 5880 5880 5880 5879 5879 5879 5879 5879 5878 5878 5877 5876 5876 5875 5874 5874 5873 5872 5871 5870 5870 5869 5868 5866 5865 5864 5863 5861
5892 5890 5889 5888 5887 5886 5885 5884 5883 5882 5882 5881 5881 5881 5880 5880 5879 5879 5879 5879 5879 5878 5878 5878 5877 5876 5875 5875 5874 5873 5873 5872 5871 5870 5869 5868 5867 5866 5864 5863 5862 5861 5859
5893 5891 5890 5889 5887 5886 5885 5884 5883 5883 5882 5882 5881 5881 5880 5880 5879 5879 5878 5878 5878 5877 5877 5877 5876 5875 5874 5874 5873 5872 5871 5870 5869 5868 5867 5867 5865 5864 5862 5861 5860 5859 5858
5893 5892 5891 5889 5888 5886 5885 5884 5884 5883 5882 5881 5881 5880 5880 5879 5879 5878 5878 5877 5877 5876 5876 5875 5875 5874 5873 5873 5872 5870 5869 5868 5867 5866 5865 5865 5864 5862 5861 5859 5858 5857 5856
5893 5892 5891 5890 5888 5887 5886 5885 5884 5883 5882 5882 5881 5880 5879 5878 5878 5877 5877 5877 5876 5875 5875 5874 5873 5872 5872 5871 5870 5869 5868 5868 5866 5864 5863 5863 5862 5860 5859 5857 5856 5855 5854
5893 5892 5891 5890 5889 5887 5886 5885 5884 5883 5882 5881 5881 5880 5879 5878 5877 5877 5876 5875 5875 5874 5873 5872 5871 5871 5870 5869 5868 5867 5866 5865 5864 5863 5862 5861 5859 5858 5857 5856 5855 5853 5852
5892 5891 5890 5889 5888 5887 5886 5884 5883 5882 5881 5881 5879 5879 5878 5877 5876 5876 5875 5874 5873 5872 5871 5870 5870 5869 5868 5867 5866 5865 5864 5863 5862 5861 5860 5858 5857 5856 5855 5853 5852 5851 5850
5891 5890 5889 5888 5887 5886 5885 5883 5882 5881 5880 5879 5878 5877 5876 5875 5874 5874 5873 5872 5871 5870 5869 5868 5867 5866 5866 5865 5864 5863 5862 5860 5859 5859 5858 5856 5855 5853 5852 5851 5850 5849 5848
5890 5889 5888 5887 5886 5885 5883 5882 5881 5880 5879 5877 5876 5875 5874 5873 5872 5871 5870 5870 5869 5868 5867 5866 5865 5864 5863 5862 5862 5861 5859 5858 5857 5856 5855 5853 5852 5851 5850 5848 5847 5846 5845